This is the latest recevied weather packets stored in our database for station/object DB0ASF-4. If no packets are shown the sender has not sent any weather packets the latest 10 day(s).
| Time | Temp. | Humidity | Pressure | Rain* | Wind** | Luminosity | Snow |
|---|---|---|---|---|---|---|---|
| 1777789757 | 13.89° C | 71% | 1020.7 hPa | 0 mm | - | - | - |
| 1777789157 | 13.33° C | 71% | 1020.2 hPa | 0 mm | - | - | - |
| 1777788557 | 12.78° C | 72% | 1020.2 hPa | 0 mm | - | - | - |
| 1777787957 | 12.78° C | 72% | 1020 hPa | 0 mm | - | - | - |
| 1777787357 | 12.22° C | 74% | 1020.2 hPa | 0 mm | - | - | - |
| 1777786757 | 12.22° C | 74% | 1020.2 hPa | 0 mm | - | - | - |
| 1777786157 | 11.67° C | 75% | 1019.9 hPa | 0 mm | - | - | - |
| 1777785557 | 11.11° C | 76% | 1019.7 hPa | 0 mm | - | - | - |
| 1777784957 | 11.11° C | 77% | 1019.7 hPa | 0 mm | - | - | - |
| 1777784357 | 10.56° C | 78% | 1019.7 hPa | 0 mm | - | - | - |
| 1777783757 | 10° C | 78% | 1019.7 hPa | 0 mm | - | - | - |
| 1777783157 | 9.44° C | 77% | 1019.7 hPa | 0 mm | - | - | - |
| 1777782557 | 9.44° C | 77% | 1019.7 hPa | 0 mm | - | - | - |
| 1777781957 | 9.44° C | 77% | 1019.7 hPa | 0 mm | - | - | - |
| 1777781357 | 9.44° C | 76% | 1019.7 hPa | 0 mm | - | - | - |
| 1777780757 | 9.44° C | 76% | 1019.5 hPa | 0 mm | - | - | - |
| 1777780157 | 9.44° C | 75% | 1019.7 hPa | 0 mm | - | - | - |
| 1777779557 | 10° C | 75% | 1019.7 hPa | 0 mm | - | - | - |
| 1777778957 | 10° C | 75% | 1019.7 hPa | 0 mm | - | - | - |
| 1777778357 | 10° C | 75% | 1019.7 hPa | 0 mm | - | - | - |
| 1777777757 | 10.56° C | 75% | 1019.7 hPa | 0 mm | - | - | - |
| 1777777157 | 10.56° C | 75% | 1019.9 hPa | 0 mm | - | - | - |
| 1777776557 | 10.56° C | 74% | 1019.7 hPa | 0 mm | - | - | - |
| 1777775957 | 10.56° C | 73% | 1019.7 hPa | 0 mm | - | - | - |
| 1777775357 | 10.56° C | 73% | 1020 hPa | 0 mm | - | - | - |
* Rain latest hour (hover to see other rain measurements)
** Current wind speed in m/s (hover to see current wind gust speed)